Time,TemperatureF,DewpointF,PressureIn,WindDirection,WindDirectionDegrees,WindSpeedMPH,WindSpeedGustMPH,Humidity,HourlyPrecipIn,Conditions,Clouds,dailyrainin,SoftwareType,DateUTC
2013-04-27 00:00:00,57.0,52.9,30.15,N/A,-737280,0.0,-999.0,86,0.00,,,0.00,Wunderground v.1.15,2013-04-27 07:00:00,
2013-04-27 00:05:00,56.6,52.5,30.14,N/A,-737280,0.0,-999.0,86,0.00,,,0.00,Wunderground v.1.15,2013-04-27 07:05:00,
2013-04-27 00:10:00,56.6,52.5,30.14,N/A,-737280,0.0,-999.0,86,0.00,,,0.00,Wunderground v.1.15,2013-04-27 07:10:00,
2013-04-27 00:15:00,56.7,52.9,30.14,N/A,-737280,0.0,-999.0,87,0.00,,,0.00,Wunderground v.1.15,2013-04-27 07:15:00,
2013-04-27 00:20:00,56.7,52.9,30.14,N/A,-737280,0.0,-999.0,87,0.00,,,0.00,Wunderground v.1.15,2013-04-27 07:20:00,
2013-04-27 00:25:00,56.8,53.0,30.15,N/A,-737280,0.0,-999.0,87,0.00,,,0.00,Wunderground v.1.15,2013-04-27 07:25:00,
2013-04-27 00:30:00,56.8,53.0,30.15,N/A,-737280,0.0,-999.0,87,0.00,,,0.00,Wunderground v.1.15,2013-04-27 07:30:00,
2013-04-27 00:35:00,56.7,52.9,30.14,N/A,-737280,0.0,-999.0,87,0.00,,,0.00,Wunderground v.1.15,2013-04-27 07:35:00,
2013-04-27 00:40:00,56.7,52.9,30.14,N/A,-737280,0.0,-999.0,87,0.00,,,0.00,Wunderground v.1.15,2013-04-27 07:40:00,
2013-04-27 00:45:00,56.5,52.7,30.14,N/A,-737280,0.0,-999.0,87,0.00,,,0.00,Wunderground v.1.15,2013-04-27 07:45:00,
2013-04-27 00:50:00,56.5,52.7,30.14,N/A,-737280,0.0,-999.0,87,0.00,,,0.00,Wunderground v.1.15,2013-04-27 07:50:00,
2013-04-27 00:55:00,56.2,52.4,30.14,N/A,-737280,0.0,-999.0,87,0.00,,,0.00,Wunderground v.1.15,2013-04-27 07:55:00,
2013-04-27 01:00:00,56.1,52.3,30.14,N/A,-737280,0.0,-999.0,87,0.00,,,0.00,Wunderground v.1.15,2013-04-27 08:00:00,
2013-04-27 01:05:00,56.1,52.3,30.14,N/A,-737280,0.0,-999.0,87,0.00,,,0.00,Wunderground v.1.15,2013-04-27 08:05:00,
2013-04-27 01:10:00,56.1,52.3,30.14,N/A,-737280,0.0,-999.0,87,0.00,,,0.00,Wunderground v.1.15,2013-04-27 08:10:00,
2013-04-27 01:15:00,56.0,52.5,30.14,N/A,-737280,0.0,-999.0,88,0.00,,,0.00,Wunderground v.1.15,2013-04-27 08:15:00,
2013-04-27 01:20:00,56.0,52.5,30.14,N/A,-737280,0.0,-999.0,88,0.00,,,0.00,Wunderground v.1.15,2013-04-27 08:20:00,
2013-04-27 01:25:00,55.9,52.4,30.14,N/A,-737280,0.0,-999.0,88,0.00,,,0.00,Wunderground v.1.15,2013-04-27 08:25:00,
2013-04-27 01:30:00,55.9,52.4,30.14,N/A,-737280,0.0,-999.0,88,0.00,,,0.00,Wunderground v.1.15,2013-04-27 08:30:00,
2013-04-27 01:35:00,55.7,52.2,30.13,N/A,-737280,0.0,-999.0,88,0.00,,,0.00,Wunderground v.1.15,2013-04-27 08:35:00,
2013-04-27 01:40:00,55.7,52.2,30.13,N/A,-737280,0.0,-999.0,88,0.00,,,0.00,Wunderground v.1.15,2013-04-27 08:40:00,
2013-04-27 01:45:00,55.7,52.2,30.13,N/A,-737280,0.0,-999.0,88,0.00,,,0.00,Wunderground v.1.15,2013-04-27 08:45:00,
2013-04-27 01:50:00,55.7,52.2,30.13,N/A,-737280,0.0,-999.0,88,0.00,,,0.00,Wunderground v.1.15,2013-04-27 08:50:00,
2013-04-27 01:55:00,55.4,51.9,30.13,N/A,-737280,0.0,-999.0,88,0.00,,,0.00,Wunderground v.1.15,2013-04-27 08:55:00,
2013-04-27 02:00:00,55.4,51.9,30.13,N/A,-737280,0.0,-999.0,88,0.00,,,0.00,Wunderground v.1.15,2013-04-27 09:00:00,
2013-04-27 02:05:00,55.5,52.0,30.13,N/A,-737280,0.0,-999.0,88,0.00,,,0.00,Wunderground v.1.15,2013-04-27 09:05:00,
2013-04-27 02:10:00,55.5,52.0,30.13,N/A,-737280,0.0,-999.0,88,0.00,,,0.00,Wunderground v.1.15,2013-04-27 09:10:00,
2013-04-27 02:15:00,55.4,51.9,30.12,N/A,-737280,0.0,-999.0,88,0.00,,,0.00,Wunderground v.1.15,2013-04-27 09:15:00,
2013-04-27 02:20:00,55.4,51.9,30.12,N/A,-737280,0.0,-999.0,88,0.00,,,0.00,Wunderground v.1.15,2013-04-27 09:20:00,
2013-04-27 02:25:00,55.4,51.9,30.12,N/A,-737280,0.0,-999.0,88,0.00,,,0.00,Wunderground v.1.15,2013-04-27 09:25:00,
2013-04-27 02:30:00,55.4,51.9,30.12,N/A,-737280,0.0,-999.0,88,0.00,,,0.00,Wunderground v.1.15,2013-04-27 09:30:00,
2013-04-27 02:35:00,55.3,51.8,30.11,N/A,-737280,0.0,-999.0,88,0.00,,,0.00,Wunderground v.1.15,2013-04-27 09:35:00,
2013-04-27 02:40:00,55.3,51.8,30.11,N/A,-737280,0.0,-999.0,88,0.00,,,0.00,Wunderground v.1.15,2013-04-27 09:40:00,
2013-04-27 02:45:00,55.0,51.5,30.12,N/A,-737280,0.0,-999.0,88,0.00,,,0.00,Wunderground v.1.15,2013-04-27 09:45:00,
2013-04-27 02:50:00,55.0,51.5,30.12,N/A,-737280,0.0,-999.0,88,0.00,,,0.00,Wunderground v.1.15,2013-04-27 09:50:00,
2013-04-27 02:55:00,54.7,51.2,30.12,N/A,-737280,0.0,-999.0,88,0.00,,,0.00,Wunderground v.1.15,2013-04-27 09:55:00,
2013-04-27 03:00:00,54.7,51.2,30.12,N/A,-737280,0.0,-999.0,88,0.00,,,0.00,Wunderground v.1.15,2013-04-27 10:00:00,
2013-04-27 03:05:00,54.4,50.9,30.12,N/A,-737280,0.0,-999.0,88,0.00,,,0.00,Wunderground v.1.15,2013-04-27 10:05:00,
2013-04-27 03:10:00,54.4,50.9,30.12,N/A,-737280,0.0,-999.0,88,0.00,,,0.00,Wunderground v.1.15,2013-04-27 10:10:00,
2013-04-27 03:15:00,54.3,51.1,30.12,N/A,-737280,0.0,-999.0,89,0.00,,,0.00,Wunderground v.1.15,2013-04-27 10:15:00,
2013-04-27 03:20:00,54.3,51.1,30.12,N/A,-737280,0.0,-999.0,89,0.00,,,0.00,Wunderground v.1.15,2013-04-27 10:20:00,
2013-04-27 03:25:00,54.1,50.9,30.12,N/A,-737280,0.0,-999.0,89,0.00,,,0.00,Wunderground v.1.15,2013-04-27 10:25:00,
2013-04-27 03:30:00,54.1,50.9,30.12,N/A,-737280,0.0,-999.0,89,0.00,,,0.00,Wunderground v.1.15,2013-04-27 10:30:00,
2013-04-27 03:35:00,54.1,50.9,30.12,N/A,-737280,0.0,-999.0,89,0.00,,,0.00,Wunderground v.1.15,2013-04-27 10:35:00,
2013-04-27 03:40:00,54.1,50.9,30.12,N/A,-737280,0.0,-999.0,89,0.00,,,0.00,Wunderground v.1.15,2013-04-27 10:40:00,
2013-04-27 03:45:00,53.9,50.7,30.12,N/A,-737280,0.0,-999.0,89,0.00,,,0.00,Wunderground v.1.15,2013-04-27 10:45:00,
2013-04-27 03:50:00,53.9,50.7,30.12,N/A,-737280,0.0,-999.0,89,0.00,,,0.00,Wunderground v.1.15,2013-04-27 10:50:00,
2013-04-27 03:55:00,53.6,50.4,30.12,N/A,-737280,0.0,-999.0,89,0.00,,,0.00,Wunderground v.1.15,2013-04-27 10:55:00,
2013-04-27 04:00:00,53.6,50.4,30.12,N/A,-737280,0.0,-999.0,89,0.00,,,0.00,Wunderground v.1.15,2013-04-27 11:00:00,
2013-04-27 04:05:00,53.5,50.3,30.12,N/A,-737280,0.0,-999.0,89,0.00,,,0.00,Wunderground v.1.15,2013-04-27 11:05:00,
2013-04-27 04:10:00,53.5,50.3,30.12,N/A,-737280,0.0,-999.0,89,0.00,,,0.00,Wunderground v.1.15,2013-04-27 11:10:00,
2013-04-27 04:15:00,53.7,50.5,30.11,N/A,-737280,0.0,-999.0,89,0.00,,,0.00,Wunderground v.1.15,2013-04-27 11:15:00,
2013-04-27 04:20:00,53.7,50.5,30.11,N/A,-737280,0.0,-999.0,89,0.00,,,0.00,Wunderground v.1.15,2013-04-27 11:20:00,
2013-04-27 04:25:00,53.7,50.5,30.11,N/A,-737280,0.0,-999.0,89,0.00,,,0.00,Wunderground v.1.15,2013-04-27 11:25:00,
2013-04-27 04:30:00,53.7,50.5,30.11,N/A,-737280,0.0,-999.0,89,0.00,,,0.00,Wunderground v.1.15,2013-04-27 11:30:00,
2013-04-27 04:35:00,53.7,50.5,30.10,N/A,-737280,0.0,-999.0,89,0.00,,,0.00,Wunderground v.1.15,2013-04-27 11:35:00,
2013-04-27 04:40:00,53.7,50.5,30.10,N/A,-737280,0.0,-999.0,89,0.00,,,0.00,Wunderground v.1.15,2013-04-27 11:40:00,
2013-04-27 04:45:00,53.4,50.2,30.10,N/A,-737280,0.0,-999.0,89,0.00,,,0.00,Wunderground v.1.15,2013-04-27 11:45:00,
2013-04-27 04:50:00,53.4,50.2,30.10,N/A,-737280,0.0,-999.0,89,0.00,,,0.00,Wunderground v.1.15,2013-04-27 11:50:00,
2013-04-27 04:55:00,53.3,50.1,30.10,N/A,-737280,0.0,-999.0,89,0.00,,,0.00,Wunderground v.1.15,2013-04-27 11:55:00,
2013-04-27 05:00:00,53.3,50.1,30.10,N/A,-737280,0.0,-999.0,89,0.00,,,0.00,Wunderground v.1.15,2013-04-27 12:00:00,
2013-04-27 05:05:00,53.3,50.1,30.10,N/A,-737280,0.0,-999.0,89,0.00,,,0.00,Wunderground v.1.15,2013-04-27 12:05:00,
2013-04-27 05:10:00,53.3,50.1,30.10,N/A,-737280,0.0,-999.0,89,0.00,,,0.00,Wunderground v.1.15,2013-04-27 12:10:00,
2013-04-27 05:15:00,53.0,49.8,30.10,N/A,-737280,0.0,-999.0,89,0.00,,,0.00,Wunderground v.1.15,2013-04-27 12:15:00,
2013-04-27 05:20:00,53.0,49.8,30.10,N/A,-737280,0.0,-999.0,89,0.00,,,0.00,Wunderground v.1.15,2013-04-27 12:20:00,
2013-04-27 05:25:00,52.8,49.6,30.10,N/A,-737280,0.0,-999.0,89,0.00,,,0.00,Wunderground v.1.15,2013-04-27 12:25:00,
2013-04-27 05:30:00,52.8,49.6,30.10,N/A,-737280,0.0,-999.0,89,0.00,,,0.00,Wunderground v.1.15,2013-04-27 12:30:00,
2013-04-27 05:35:00,53.0,49.8,30.10,N/A,-737280,0.0,-999.0,89,0.00,,,0.00,Wunderground v.1.15,2013-04-27 12:35:00,
2013-04-27 05:40:00,53.0,49.8,30.10,N/A,-737280,0.0,-999.0,89,0.00,,,0.00,Wunderground v.1.15,2013-04-27 12:40:00,
2013-04-27 05:45:00,52.9,49.7,30.10,N/A,-737280,0.0,-999.0,89,0.00,,,0.00,Wunderground v.1.15,2013-04-27 12:45:00,
2013-04-27 05:50:00,52.9,49.7,30.10,N/A,-737280,0.0,-999.0,89,0.00,,,0.00,Wunderground v.1.15,2013-04-27 12:50:00,
2013-04-27 05:55:00,52.7,49.5,30.10,N/A,-737280,0.0,-999.0,89,0.00,,,0.00,Wunderground v.1.15,2013-04-27 12:55:00,
2013-04-27 06:00:00,52.7,49.5,30.10,N/A,-737280,0.0,-999.0,89,0.00,,,0.00,Wunderground v.1.15,2013-04-27 13:00:00,
2013-04-27 06:05:00,52.4,49.3,30.10,N/A,-737280,0.0,-999.0,89,0.00,,,0.00,Wunderground v.1.15,2013-04-27 13:05:00,
2013-04-27 06:10:00,52.4,49.3,30.10,N/A,-737280,0.0,-999.0,89,0.00,,,0.00,Wunderground v.1.15,2013-04-27 13:10:00,
2013-04-27 06:15:00,52.5,49.4,30.10,N/A,-737280,0.0,-999.0,89,0.00,,,0.00,Wunderground v.1.15,2013-04-27 13:15:00,
2013-04-27 06:20:00,52.5,49.4,30.10,N/A,-737280,0.0,-999.0,89,0.00,,,0.00,Wunderground v.1.15,2013-04-27 13:20:00,
2013-04-27 06:25:00,52.9,50.0,30.11,N/A,-737280,0.0,-999.0,90,0.00,,,0.00,Wunderground v.1.15,2013-04-27 13:25:00,
2013-04-27 06:30:00,52.9,50.0,30.11,N/A,-737280,0.0,-999.0,90,0.00,,,0.00,Wunderground v.1.15,2013-04-27 13:30:00,
2013-04-27 06:35:00,53.3,50.1,30.11,N/A,-737280,0.0,-999.0,89,0.00,,,0.00,Wunderground v.1.15,2013-04-27 13:35:00,
2013-04-27 06:40:00,53.3,50.1,30.11,N/A,-737280,0.0,-999.0,89,0.00,,,0.00,Wunderground v.1.15,2013-04-27 13:40:00,
2013-04-27 06:45:00,53.4,50.2,30.11,N/A,-737280,0.0,-999.0,89,0.00,,,0.00,Wunderground v.1.15,2013-04-27 13:45:00,
2013-04-27 06:50:00,53.4,50.2,30.11,N/A,-737280,0.0,-999.0,89,0.00,,,0.00,Wunderground v.1.15,2013-04-27 13:50:00,
2013-04-27 06:55:00,54.2,51.3,30.11,N/A,-737280,0.0,-999.0,90,0.00,,,0.00,Wunderground v.1.15,2013-04-27 13:55:00,
2013-04-27 07:00:00,54.2,51.3,30.11,N/A,-737280,0.0,-999.0,90,0.00,,,0.00,Wunderground v.1.15,2013-04-27 14:00:00,
2013-04-27 07:28:00,57.6,54.7,30.11,WNW,286,0.0,0.0,90,0.00,,,0.00,Wunderground v.1.15,2013-04-27 14:28:00,
2013-04-27 07:30:00,57.8,54.9,30.11,WNW,286,0.0,0.0,90,0.00,,,0.00,Wunderground v.1.15,2013-04-27 14:30:00,
2013-04-27 07:34:00,57.8,54.9,30.11,WNW,286,0.0,0.0,90,0.00,,,0.00,Wunderground v.1.15,2013-04-27 14:34:00,
2013-04-27 07:36:00,57.8,54.9,30.11,WNW,286,0.0,0.0,90,0.00,,,0.00,Wunderground v.1.15,2013-04-27 14:36:00,
2013-04-27 07:40:00,57.8,54.9,30.11,WNW,286,0.0,0.0,90,0.00,,,0.00,Wunderground v.1.15,2013-04-27 14:40:00,
2013-04-27 07:42:00,57.9,54.7,30.11,WNW,286,0.0,0.0,89,0.00,,,0.00,Wunderground v.1.15,2013-04-27 14:42:00,
2013-04-27 07:46:00,58.1,54.9,30.11,WNW,286,0.0,0.0,89,0.00,,,0.00,Wunderground v.1.15,2013-04-27 14:46:00,
2013-04-27 07:48:00,58.2,55.0,30.11,WNW,286,0.0,0.0,89,0.00,,,0.00,Wunderground v.1.15,2013-04-27 14:48:00,
2013-04-27 07:50:00,58.5,55.6,30.11,WNW,286,0.0,0.0,90,0.00,,,0.00,Wunderground v.1.15,2013-04-27 14:50:00,
2013-04-27 07:52:00,58.7,55.5,30.12,WNW,286,0.0,0.0,89,0.00,,,0.00,Wunderground v.1.15,2013-04-27 14:52:00,
2013-04-27 07:54:00,58.9,56.0,30.12,WNW,286,0.0,1.0,90,0.00,,,0.00,Wunderground v.1.15,2013-04-27 14:54:00,
2013-04-27 07:56:00,59.2,56.0,30.12,WNW,286,0.0,1.0,89,0.00,,,0.00,Wunderground v.1.15,2013-04-27 14:56:00,
2013-04-27 08:00:00,59.7,56.5,30.12,WNW,286,0.0,0.0,89,0.00,,,0.00,Wunderground v.1.15,2013-04-27 15:00:00,
2013-04-27 08:02:00,59.9,56.6,30.12,WNW,286,0.0,0.0,89,0.00,,,0.00,Wunderground v.1.15,2013-04-27 15:02:00,
2013-04-27 08:04:00,60.1,56.8,30.12,WNW,286,0.0,0.0,89,0.00,,,0.00,Wunderground v.1.15,2013-04-27 15:04:00,
2013-04-27 08:08:00,60.7,57.4,30.12,WNW,286,0.0,0.0,89,0.00,,,0.00,Wunderground v.1.15,2013-04-27 15:08:00,
2013-04-27 08:10:00,60.8,57.2,30.12,WNW,286,0.0,0.0,88,0.00,,,0.00,Wunderground v.1.15,2013-04-27 15:10:00,
2013-04-27 08:12:00,60.9,57.3,30.12,WNW,286,0.0,0.0,88,0.00,,,0.00,Wunderground v.1.15,2013-04-27 15:12:00,
2013-04-27 08:14:00,61.0,57.1,30.12,WNW,286,0.0,0.0,87,0.00,,,0.00,Wunderground v.1.15,2013-04-27 15:14:00,
2013-04-27 08:18:00,61.0,56.8,30.12,WNW,286,0.0,0.0,86,0.00,,,0.00,Wunderground v.1.15,2013-04-27 15:18:00,
2013-04-27 08:20:00,61.1,56.9,30.12,WNW,286,0.0,0.0,86,0.00,,,0.00,Wunderground v.1.15,2013-04-27 15:20:00,
2013-04-27 08:22:00,61.2,57.0,30.12,WNW,286,0.0,0.0,86,0.00,,,0.00,Wunderground v.1.15,2013-04-27 15:22:00,
2013-04-27 08:26:00,61.3,57.1,30.12,WNW,286,0.0,0.0,86,0.00,,,0.00,Wunderground v.1.15,2013-04-27 15:26:00,
2013-04-27 08:28:00,61.4,56.8,30.12,WNW,286,0.0,0.0,85,0.00,,,0.00,Wunderground v.1.15,2013-04-27 15:28:00,
2013-04-27 08:32:00,61.7,57.1,30.12,WNW,286,0.0,0.0,85,0.00,,,0.00,Wunderground v.1.15,2013-04-27 15:32:00,
2013-04-27 08:34:00,61.7,56.8,30.12,WNW,286,0.0,0.0,84,0.00,,,0.00,Wunderground v.1.15,2013-04-27 15:34:00,
2013-04-27 08:38:00,61.9,57.0,30.12,WNW,286,0.0,0.0,84,0.00,,,0.00,Wunderground v.1.15,2013-04-27 15:38:00,
2013-04-27 08:40:00,62.1,57.2,30.12,WNW,286,0.0,0.0,84,0.00,,,0.00,Wunderground v.1.15,2013-04-27 15:40:00,
2013-04-27 08:44:00,62.3,57.1,30.12,WNW,286,0.0,1.0,83,0.00,,,0.00,Wunderground v.1.15,2013-04-27 15:44:00,
2013-04-27 08:46:00,62.5,56.9,30.12,WNW,287,0.0,1.0,82,0.00,,,0.00,Wunderground v.1.15,2013-04-27 15:46:00,
2013-04-27 08:48:00,62.8,57.6,30.12,WNW,287,0.0,3.0,83,0.00,,,0.00,Wunderground v.1.15,2013-04-27 15:48:00,
2013-04-27 08:50:00,63.0,57.1,30.12,WNW,287,0.0,0.0,81,0.00,,,0.00,Wunderground v.1.15,2013-04-27 15:50:00,
2013-04-27 08:52:00,63.1,57.2,30.12,WNW,287,0.0,0.0,81,0.00,,,0.00,Wunderground v.1.15,2013-04-27 15:52:00,
2013-04-27 08:54:00,63.3,57.4,30.12,WNW,287,0.0,0.0,81,0.00,,,0.00,Wunderground v.1.15,2013-04-27 15:54:00,
2013-04-27 08:56:00,63.6,57.7,30.12,WNW,287,0.0,0.0,81,0.00,,,0.00,Wunderground v.1.15,2013-04-27 15:56:00,
2013-04-27 09:00:00,64.3,58.0,30.12,WNW,287,0.0,0.0,80,0.00,,,0.00,Wunderground v.1.15,2013-04-27 16:00:00,
2013-04-27 09:02:00,64.5,58.2,30.12,WNW,287,0.0,0.0,80,0.00,,,0.00,Wunderground v.1.15,2013-04-27 16:02:00,
2013-04-27 09:08:00,65.3,58.3,30.13,West,277,0.0,1.0,78,0.00,,,0.00,Wunderground v.1.15,2013-04-27 16:08:00,
2013-04-27 09:10:00,65.6,58.6,30.13,West,275,0.0,3.0,78,0.00,,,0.00,Wunderground v.1.15,2013-04-27 16:10:00,
2013-04-27 09:14:00,66.0,58.6,30.13,WSW,254,1.0,3.0,77,0.00,,,0.00,Wunderground v.1.15,2013-04-27 16:14:00,
2013-04-27 09:16:00,66.2,58.8,30.13,SSW,197,1.0,3.0,77,0.00,,,0.00,Wunderground v.1.15,2013-04-27 16:16:00,
2013-04-27 09:18:00,66.3,58.5,30.13,SW,236,1.0,3.0,76,0.00,,,0.00,Wunderground v.1.15,2013-04-27 16:18:00,
2013-04-27 09:24:00,66.1,58.3,30.12,SW,232,2.0,3.0,76,0.00,,,0.00,Wunderground v.1.15,2013-04-27 16:24:00,
2013-04-27 09:26:00,66.1,58.7,30.12,SW,232,2.0,3.0,77,0.00,,,0.00,Wunderground v.1.15,2013-04-27 16:26:00,
2013-04-27 09:30:00,66.0,58.2,30.12,SSW,200,2.0,3.0,76,0.00,,,0.00,Wunderground v.1.15,2013-04-27 16:30:00,
2013-04-27 09:34:00,65.9,58.1,30.12,South,188,1.0,6.0,76,0.00,,,0.00,Wunderground v.1.15,2013-04-27 16:34:00,
2013-04-27 09:36:00,65.8,58.4,30.12,South,183,2.0,6.0,77,0.00,,,0.00,Wunderground v.1.15,2013-04-27 16:36:00,
2013-04-27 09:38:00,65.8,58.4,30.12,South,175,3.0,6.0,77,0.00,,,0.00,Wunderground v.1.15,2013-04-27 16:38:00,
2013-04-27 09:42:00,65.9,58.5,30.12,South,184,2.0,2.0,77,0.00,,,0.00,Wunderground v.1.15,2013-04-27 16:42:00,
2013-04-27 09:44:00,66.0,58.9,30.12,SW,226,2.0,2.0,78,0.00,,,0.00,Wunderground v.1.15,2013-04-27 16:44:00,
2013-04-27 09:46:00,66.0,58.6,30.13,South,191,2.0,2.0,77,0.00,,,0.00,Wunderground v.1.15,2013-04-27 16:46:00,
2013-04-27 09:48:00,66.0,58.6,30.12,SW,218,2.0,2.0,77,0.00,,,0.00,Wunderground v.1.15,2013-04-27 16:48:00,
2013-04-27 09:50:00,66.0,58.6,30.12,SW,221,2.0,2.0,77,0.00,,,0.00,Wunderground v.1.15,2013-04-27 16:50:00,
2013-04-27 09:52:00,66.0,58.6,30.12,South,173,2.0,2.0,77,0.00,,,0.00,Wunderground v.1.15,2013-04-27 16:52:00,
2013-04-27 09:54:00,66.0,58.6,30.12,SSW,207,2.0,6.0,77,0.00,,,0.00,Wunderground v.1.15,2013-04-27 16:54:00,
2013-04-27 09:58:00,66.2,58.8,30.12,SSW,196,2.0,6.0,77,0.00,,,0.00,Wunderground v.1.15,2013-04-27 16:58:00,
2013-04-27 10:02:00,66.3,58.9,30.13,SW,223,2.0,3.0,77,0.00,,,0.00,Wunderground v.1.15,2013-04-27 17:02:00,
2013-04-27 10:06:00,66.0,58.2,30.13,South,177,3.0,3.0,76,0.00,,,0.00,Wunderground v.1.15,2013-04-27 17:06:00,
2013-04-27 10:08:00,66.1,58.7,30.13,South,173,3.0,3.0,77,0.00,,,0.00,Wunderground v.1.15,2013-04-27 17:08:00,
2013-04-27 10:12:00,66.2,58.8,30.13,SW,230,3.0,5.0,77,0.00,,,0.00,Wunderground v.1.15,2013-04-27 17:12:00,
2013-04-27 10:14:00,66.3,58.9,30.12,SW,230,3.0,5.0,77,0.00,,,0.00,Wunderground v.1.15,2013-04-27 17:14:00,
2013-04-27 10:16:00,66.1,58.3,30.13,South,189,3.0,5.0,76,0.00,,,0.00,Wunderground v.1.15,2013-04-27 17:16:00,
2013-04-27 10:20:00,66.0,58.6,30.13,SSW,204,4.0,4.0,77,0.00,,,0.00,Wunderground v.1.15,2013-04-27 17:20:00,
2013-04-27 10:22:00,66.1,58.7,30.13,WSW,238,4.0,4.0,77,0.00,,,0.00,Wunderground v.1.15,2013-04-27 17:22:00,
2013-04-27 10:24:00,66.1,58.7,30.12,SSW,205,3.0,4.0,77,0.00,,,0.00,Wunderground v.1.15,2013-04-27 17:24:00,
2013-04-27 10:26:00,66.3,58.9,30.13,South,186,3.0,4.0,77,0.00,,,0.00,Wunderground v.1.15,2013-04-27 17:26:00,
2013-04-27 10:30:00,66.4,58.6,30.13,SW,221,3.0,5.0,76,0.00,,,0.00,Wunderground v.1.15,2013-04-27 17:30:00,
2013-04-27 10:32:00,66.4,58.6,30.12,SSW,213,3.0,5.0,76,0.00,,,0.00,Wunderground v.1.15,2013-04-27 17:32:00,
2013-04-27 10:36:00,66.3,58.9,30.12,SW,215,4.0,5.0,77,0.00,,,0.00,Wunderground v.1.15,2013-04-27 17:36:00,
2013-04-27 10:38:00,66.5,58.7,30.12,South,185,4.0,5.0,76,0.00,,,0.00,Wunderground v.1.15,2013-04-27 17:38:00,
2013-04-27 10:42:00,66.4,58.6,30.13,South,176,4.0,4.0,76,0.00,,,0.00,Wunderground v.1.15,2013-04-27 17:42:00,
2013-04-27 10:44:00,66.3,58.9,30.13,SW,221,3.0,11.0,77,0.00,,,0.00,Wunderground v.1.15,2013-04-27 17:44:00,
2013-04-27 10:46:00,66.2,58.8,30.13,SSW,209,4.0,11.0,77,0.00,,,0.00,Wunderground v.1.15,2013-04-27 17:46:00,
2013-04-27 10:48:00,66.1,58.7,30.13,SSW,196,4.0,11.0,77,0.00,,,0.00,Wunderground v.1.15,2013-04-27 17:48:00,
2013-04-27 10:50:00,66.1,59.0,30.13,South,190,4.0,4.0,78,0.00,,,0.00,Wunderground v.1.15,2013-04-27 17:50:00,
2013-04-27 10:52:00,66.2,59.1,30.13,South,189,4.0,6.0,78,0.00,,,0.00,Wunderground v.1.15,2013-04-27 17:52:00,
2013-04-27 10:54:00,66.2,58.8,30.12,SW,223,4.0,6.0,77,0.00,,,0.00,Wunderground v.1.15,2013-04-27 17:54:00,
2013-04-27 10:58:00,66.0,58.6,30.13,South,175,4.0,6.0,77,0.00,,,0.00,Wunderground v.1.15,2013-04-27 17:58:00,
2013-04-27 11:00:00,66.3,59.2,30.13,South,182,4.0,4.0,78,0.00,,,0.00,Wunderground v.1.15,2013-04-27 18:00:00,
2013-04-27 11:04:00,66.5,59.1,30.13,SW,227,4.0,4.0,77,0.00,,,0.00,Wunderground v.1.15,2013-04-27 18:04:00,
2013-04-27 11:06:00,66.3,58.9,30.13,SW,214,4.0,4.0,77,0.00,,,0.00,Wunderground v.1.15,2013-04-27 18:06:00,
2013-04-27 11:12:00,66.4,58.6,30.12,SW,215,5.0,5.0,76,0.00,,,0.00,Wunderground v.1.15,2013-04-27 18:12:00,
2013-04-27 11:14:00,66.3,58.9,30.12,South,182,4.0,5.0,77,0.00,,,0.00,Wunderground v.1.15,2013-04-27 18:14:00,
2013-04-27 11:16:00,66.3,58.9,30.12,SW,220,4.0,5.0,77,0.00,,,0.00,Wunderground v.1.15,2013-04-27 18:16:00,
2013-04-27 11:20:00,66.3,58.9,30.12,South,169,4.0,4.0,77,0.00,,,0.00,Wunderground v.1.15,2013-04-27 18:20:00,
2013-04-27 11:22:00,66.5,59.4,30.12,SW,225,4.0,4.0,78,0.00,,,0.00,Wunderground v.1.15,2013-04-27 18:22:00,
2013-04-27 11:24:00,66.8,59.4,30.12,SW,236,4.0,6.0,77,0.00,,,0.00,Wunderground v.1.15,2013-04-27 18:24:00,
2013-04-27 11:26:00,66.8,59.0,30.12,SSW,209,4.0,6.0,76,0.00,,,0.00,Wunderground v.1.15,2013-04-27 18:26:00,
2013-04-27 11:28:00,66.8,59.4,30.12,South,176,4.0,10.0,77,0.00,,,0.00,Wunderground v.1.15,2013-04-27 18:28:00,
2013-04-27 11:32:00,66.7,58.9,30.12,South,191,5.0,5.0,76,0.00,,,0.00,Wunderground v.1.15,2013-04-27 18:32:00,
2013-04-27 11:36:00,66.5,59.1,30.11,SW,219,5.0,6.0,77,0.00,,,0.00,Wunderground v.1.15,2013-04-27 18:36:00,
2013-04-27 11:40:00,66.3,58.9,30.11,SSW,198,5.0,5.0,77,0.00,,,0.00,Wunderground v.1.15,2013-04-27 18:40:00,
2013-04-27 11:42:00,66.4,59.0,30.11,SSW,213,5.0,5.0,77,0.00,,,0.00,Wunderground v.1.15,2013-04-27 18:42:00,
2013-04-27 11:44:00,66.4,59.0,30.11,WSW,239,5.0,5.0,77,0.00,,,0.00,Wunderground v.1.15,2013-04-27 18:44:00,
2013-04-27 11:46:00,66.6,59.2,30.11,SSW,198,4.0,5.0,77,0.00,,,0.00,Wunderground v.1.15,2013-04-27 18:46:00,
2013-04-27 11:48:00,66.5,59.1,30.11,SSW,200,5.0,9.0,77,0.00,,,0.00,Wunderground v.1.15,2013-04-27 18:48:00,
2013-04-27 11:52:00,66.4,59.0,30.11,South,188,5.0,8.0,77,0.00,,,0.00,Wunderground v.1.15,2013-04-27 18:52:00,
2013-04-27 11:54:00,66.2,58.8,30.11,WSW,248,6.0,8.0,77,0.00,,,0.00,Wunderground v.1.15,2013-04-27 18:54:00,
2013-04-27 11:58:00,66.2,58.4,30.11,SSW,201,6.0,8.0,76,0.00,,,0.00,Wunderground v.1.15,2013-04-27 18:58:00,
2013-04-27 12:00:00,66.2,58.8,30.11,South,179,6.0,6.0,77,0.00,,,0.00,Wunderground v.1.15,2013-04-27 19:00:00,
2013-04-27 12:02:00,66.3,58.9,30.11,SW,229,5.0,7.0,77,0.00,,,0.00,Wunderground v.1.15,2013-04-27 19:02:00,
2013-04-27 12:06:00,66.2,58.8,30.11,South,182,6.0,8.0,77,0.00,,,0.00,Wunderground v.1.15,2013-04-27 19:06:00,
2013-04-27 12:10:00,66.2,58.8,30.11,SW,227,6.0,7.0,77,0.00,,,0.00,Wunderground v.1.15,2013-04-27 19:10:00,
2013-04-27 12:12:00,66.1,58.7,30.11,SW,216,6.0,7.0,77,0.00,,,0.00,Wunderground v.1.15,2013-04-27 19:12:00,
2013-04-27 12:14:00,66.2,58.8,30.10,SW,232,5.0,7.0,77,0.00,,,0.00,Wunderground v.1.15,2013-04-27 19:14:00,
2013-04-27 12:20:00,66.2,58.8,30.10,SW,236,5.0,6.0,77,0.00,,,0.00,Wunderground v.1.15,2013-04-27 19:20:00,
2013-04-27 12:22:00,66.2,58.8,30.10,SW,217,5.0,6.0,77,0.00,,,0.00,Wunderground v.1.15,2013-04-27 19:22:00,
2013-04-27 12:24:00,66.3,58.5,30.10,South,178,5.0,6.0,76,0.00,,,0.00,Wunderground v.1.15,2013-04-27 19:24:00,
2013-04-27 12:26:00,66.4,59.0,30.10,SSW,206,4.0,6.0,77,0.00,,,0.00,Wunderground v.1.15,2013-04-27 19:26:00,
2013-04-27 12:30:00,66.6,58.4,30.10,SSW,202,5.0,6.0,75,0.00,,,0.00,Wunderground v.1.15,2013-04-27 19:30:00,
2013-04-27 12:32:00,66.6,58.4,30.10,South,180,5.0,6.0,75,0.00,,,0.00,Wunderground v.1.15,2013-04-27 19:32:00,
2013-04-27 12:38:00,66.4,58.6,30.10,South,184,5.0,7.0,76,0.00,,,0.00,Wunderground v.1.15,2013-04-27 19:38:00,
2013-04-27 12:40:00,66.5,58.7,30.09,SW,214,5.0,6.0,76,0.00,,,0.00,Wunderground v.1.15,2013-04-27 19:40:00,
2013-04-27 12:46:00,66.9,58.7,30.09,SSW,201,5.0,6.0,75,0.00,,,0.00,Wunderground v.1.15,2013-04-27 19:46:00,
2013-04-27 12:48:00,67.0,58.8,30.09,SW,227,5.0,6.0,75,0.00,,,0.00,Wunderground v.1.15,2013-04-27 19:48:00,
2013-04-27 12:50:00,67.1,58.9,30.09,WSW,248,5.0,5.0,75,0.00,,,0.00,Wunderground v.1.15,2013-04-27 19:50:00,
2013-04-27 12:54:00,67.2,58.6,30.09,SW,233,5.0,10.0,74,0.00,,,0.00,Wunderground v.1.15,2013-04-27 19:54:00,
2013-04-27 12:56:00,67.0,58.4,30.09,SSW,199,6.0,10.0,74,0.00,,,0.00,Wunderground v.1.15,2013-04-27 19:56:00,
2013-04-27 12:58:00,67.1,58.9,30.09,SSW,205,6.0,10.0,75,0.00,,,0.00,Wunderground v.1.15,2013-04-27 19:58:00,
2013-04-27 13:00:00,67.4,58.8,30.08,South,173,6.0,8.0,74,0.00,,,0.00,Wunderground v.1.15,2013-04-27 20:00:00,
2013-04-27 13:02:00,67.5,58.9,30.08,SW,224,6.0,8.0,74,0.00,,,0.00,Wunderground v.1.15,2013-04-27 20:02:00,
2013-04-27 13:06:00,67.8,58.8,30.08,SSW,209,5.0,9.0,73,0.00,,,0.00,Wunderground v.1.15,2013-04-27 20:06:00,
2013-04-27 13:08:00,68.0,59.0,30.08,WNW,298,5.0,9.0,73,0.00,,,0.00,Wunderground v.1.15,2013-04-27 20:08:00,
2013-04-27 13:10:00,68.2,58.4,30.08,SSW,193,5.0,5.0,71,0.00,,,0.00,Wunderground v.1.15,2013-04-27 20:10:00,
2013-04-27 13:12:00,68.3,58.1,30.08,South,182,5.0,5.0,70,0.00,,,0.00,Wunderground v.1.15,2013-04-27 20:12:00,
2013-04-27 13:14:00,68.4,58.6,30.07,SW,227,5.0,5.0,71,0.00,,,0.00,Wunderground v.1.15,2013-04-27 20:14:00,
2013-04-27 13:18:00,68.6,59.2,30.07,South,189,5.0,5.0,72,0.00,,,0.00,Wunderground v.1.15,2013-04-27 20:18:00,
2013-04-27 13:22:00,68.9,58.7,30.07,SW,215,5.0,6.0,70,0.00,,,0.00,Wunderground v.1.15,2013-04-27 20:22:00,
2013-04-27 13:24:00,69.0,59.2,30.07,South,183,4.0,6.0,71,0.00,,,0.00,Wunderground v.1.15,2013-04-27 20:24:00,
2013-04-27 13:28:00,69.6,59.4,30.07,SSW,192,4.0,6.0,70,0.00,,,0.00,Wunderground v.1.15,2013-04-27 20:28:00,
2013-04-27 13:30:00,69.8,59.6,30.07,SSE,167,4.0,4.0,70,0.00,,,0.00,Wunderground v.1.15,2013-04-27 20:30:00,
2013-04-27 13:32:00,69.9,59.3,30.07,South,183,3.0,10.0,69,0.00,,,0.00,Wunderground v.1.15,2013-04-27 20:32:00,
2013-04-27 13:34:00,69.9,59.3,30.07,SW,220,4.0,10.0,69,0.00,,,0.00,Wunderground v.1.15,2013-04-27 20:34:00,
2013-04-27 13:36:00,70.0,59.8,30.06,SSE,167,4.0,10.0,70,0.00,,,0.00,Wunderground v.1.15,2013-04-27 20:36:00,
2013-04-27 13:40:00,70.4,60.1,30.06,South,178,4.0,4.0,70,0.00,,,0.00,Wunderground v.1.15,2013-04-27 20:40:00,
2013-04-27 13:42:00,70.6,59.9,30.06,South,185,3.0,5.0,69,0.00,,,0.00,Wunderground v.1.15,2013-04-27 20:42:00,
2013-04-27 13:44:00,70.6,59.9,30.06,South,186,3.0,7.0,69,0.00,,,0.00,Wunderground v.1.15,2013-04-27 20:44:00,
2013-04-27 13:48:00,70.8,60.1,30.06,South,169,3.0,7.0,69,0.00,,,0.00,Wunderground v.1.15,2013-04-27 20:48:00,
2013-04-27 13:50:00,71.0,59.9,30.06,SSW,201,3.0,6.0,68,0.00,,,0.00,Wunderground v.1.15,2013-04-27 20:50:00,
2013-04-27 13:52:00,71.0,60.3,30.06,South,182,3.0,6.0,69,0.00,,,0.00,Wunderground v.1.15,2013-04-27 20:52:00,
2013-04-27 13:58:00,71.6,60.5,30.05,South,178,3.0,6.0,68,0.00,,,0.00,Wunderground v.1.15,2013-04-27 20:58:00,
2013-04-27 14:00:00,72.2,60.6,30.05,SSW,209,3.0,3.0,67,0.00,,,0.00,Wunderground v.1.15,2013-04-27 21:00:00,
2013-04-27 14:02:00,72.4,61.2,30.05,SSE,164,2.0,3.0,68,0.00,,,0.00,Wunderground v.1.15,2013-04-27 21:02:00,
2013-04-27 14:06:00,73.1,61.1,30.05,SE,144,2.0,3.0,66,0.00,,,0.00,Wunderground v.1.15,2013-04-27 21:06:00,
2013-04-27 14:08:00,73.4,60.9,30.05,SSW,192,2.0,3.0,65,0.00,,,0.00,Wunderground v.1.15,2013-04-27 21:08:00,
2013-04-27 14:10:00,73.1,60.2,30.05,South,191,3.0,6.0,64,0.00,,,0.00,Wunderground v.1.15,2013-04-27 21:10:00,
2013-04-27 14:12:00,72.9,60.4,30.05,SSW,211,3.0,6.0,65,0.00,,,0.00,Wunderground v.1.15,2013-04-27 21:12:00,
2013-04-27 14:14:00,72.6,60.2,30.05,SSW,194,3.0,6.0,65,0.00,,,0.00,Wunderground v.1.15,2013-04-27 21:14:00,
2013-04-27 14:18:00,72.6,61.0,30.05,SSW,203,3.0,7.0,67,0.00,,,0.00,Wunderground v.1.15,2013-04-27 21:18:00,
2013-04-27 14:20:00,72.7,60.3,30.05,SE,140,3.0,3.0,65,0.00,,,0.00,Wunderground v.1.15,2013-04-27 21:20:00,
2013-04-27 14:22:00,72.8,60.3,30.05,South,187,3.0,3.0,65,0.00,,,0.00,Wunderground v.1.15,2013-04-27 21:22:00,
2013-04-27 14:26:00,72.8,60.8,30.04,SW,236,3.0,5.0,66,0.00,,,0.00,Wunderground v.1.15,2013-04-27 21:26:00,
2013-04-27 14:28:00,72.7,60.7,30.04,SSE,161,3.0,5.0,66,0.00,,,0.00,Wunderground v.1.15,2013-04-27 21:28:00,
2013-04-27 14:30:00,73.0,61.0,30.04,WNW,287,3.0,3.0,66,0.00,,,0.00,Wunderground v.1.15,2013-04-27 21:30:00,
2013-04-27 14:32:00,73.2,60.7,30.04,SSW,200,3.0,3.0,65,0.00,,,0.00,Wunderground v.1.15,2013-04-27 21:32:00,
2013-04-27 14:34:00,73.5,61.0,30.04,South,180,3.0,8.0,65,0.00,,,0.00,Wunderground v.1.15,2013-04-27 21:34:00,
2013-04-27 14:36:00,73.6,60.7,30.04,SSW,212,3.0,8.0,64,0.00,,,0.00,Wunderground v.1.15,2013-04-27 21:36:00,
2013-04-27 14:38:00,73.6,60.7,30.04,South,174,3.0,8.0,64,0.00,,,0.00,Wunderground v.1.15,2013-04-27 21:38:00,
2013-04-27 14:42:00,73.8,60.4,30.03,South,176,3.0,8.0,63,0.00,,,0.00,Wunderground v.1.15,2013-04-27 21:42:00,
2013-04-27 14:46:00,73.6,60.7,30.03,SW,214,3.0,8.0,64,0.00,,,0.00,Wunderground v.1.15,2013-04-27 21:46:00,
2013-04-27 14:48:00,73.5,60.6,30.03,SSW,212,4.0,8.0,64,0.00,,,0.00,Wunderground v.1.15,2013-04-27 21:48:00,
2013-04-27 14:54:00,74.3,61.3,30.03,NW,315,3.0,3.0,64,0.00,,,0.00,Wunderground v.1.15,2013-04-27 21:54:00,
2013-04-27 14:56:00,74.6,61.2,30.03,SE,144,2.0,3.0,63,0.00,,,0.00,Wunderground v.1.15,2013-04-27 21:56:00,
2013-04-27 14:58:00,75.0,62.0,30.03,SSW,213,2.0,4.0,64,0.00,,,0.00,Wunderground v.1.15,2013-04-27 21:58:00,
2013-04-27 15:00:00,75.3,61.4,30.02,WSW,237,2.0,2.0,62,0.00,,,0.00,Wunderground v.1.15,2013-04-27 22:00:00,
2013-04-27 15:02:00,75.3,61.4,30.02,SW,230,2.0,9.0,62,0.00,,,0.00,Wunderground v.1.15,2013-04-27 22:02:00,
2013-04-27 15:06:00,75.4,61.0,30.02,SSW,209,2.0,9.0,61,0.00,,,0.00,Wunderground v.1.15,2013-04-27 22:06:00,
2013-04-27 15:08:00,75.7,60.4,30.02,West,267,3.0,9.0,59,0.00,,,0.00,Wunderground v.1.15,2013-04-27 22:08:00,
2013-04-27 15:10:00,76.1,59.8,30.02,NW,313,3.0,3.0,57,0.00,,,0.00,Wunderground v.1.15,2013-04-27 22:10:00,
2013-04-27 15:14:00,76.4,60.0,30.01,WNW,293,3.0,4.0,57,0.00,,,0.00,Wunderground v.1.15,2013-04-27 22:14:00,
2013-04-27 15:18:00,76.7,60.3,30.01,NW,311,3.0,4.0,57,0.00,,,0.00,Wunderground v.1.15,2013-04-27 22:18:00,
2013-04-27 15:20:00,77.0,60.1,30.01,WNW,300,2.0,2.0,56,0.00,,,0.00,Wunderground v.1.15,2013-04-27 22:20:00,
2013-04-27 15:24:00,77.2,59.3,30.01,West,273,3.0,3.0,54,0.00,,,0.00,Wunderground v.1.15,2013-04-27 22:24:00,
2013-04-27 15:26:00,77.2,59.3,30.01,WNW,287,3.0,3.0,54,0.00,,,0.00,Wunderground v.1.15,2013-04-27 22:26:00,
2013-04-27 15:28:00,77.3,59.4,30.01,West,275,4.0,5.0,54,0.00,,,0.00,Wunderground v.1.15,2013-04-27 22:28:00,
2013-04-27 15:34:00,77.2,58.7,30.01,West,274,4.0,5.0,53,0.00,,,0.00,Wunderground v.1.15,2013-04-27 22:34:00,
2013-04-27 15:36:00,77.1,58.6,30.01,NNW,328,3.0,5.0,53,0.00,,,0.00,Wunderground v.1.15,2013-04-27 22:36:00,
2013-04-27 15:40:00,77.3,58.8,30.01,West,263,3.0,5.0,53,0.00,,,0.00,Wunderground v.1.15,2013-04-27 22:40:00,
2013-04-27 15:44:00,77.2,58.7,30.01,WNW,300,3.0,5.0,53,0.00,,,0.00,Wunderground v.1.15,2013-04-27 22:44:00,
2013-04-27 15:46:00,77.1,59.2,30.01,West,270,3.0,5.0,54,0.00,,,0.00,Wunderground v.1.15,2013-04-27 22:46:00,
2013-04-27 15:48:00,77.0,59.1,30.01,West,266,4.0,5.0,54,0.00,,,0.00,Wunderground v.1.15,2013-04-27 22:48:00,
2013-04-27 15:50:00,76.9,59.0,30.01,North,5,4.0,4.0,54,0.00,,,0.00,Wunderground v.1.15,2013-04-27 22:50:00,
2013-04-27 15:54:00,76.9,59.0,30.01,West,271,3.0,5.0,54,0.00,,,0.00,Wunderground v.1.15,2013-04-27 22:54:00,
2013-04-27 15:56:00,76.9,59.0,30.00,West,276,4.0,5.0,54,0.00,,,0.00,Wunderground v.1.15,2013-04-27 22:56:00,
2013-04-27 15:58:00,76.9,59.0,30.01,NW,305,4.0,5.0,54,0.00,,,0.00,Wunderground v.1.15,2013-04-27 22:58:00,
2013-04-27 16:00:00,76.6,58.7,30.01,West,271,4.0,4.0,54,0.00,,,0.00,Wunderground v.1.15,2013-04-27 23:00:00,
2013-04-27 16:02:00,76.5,59.1,30.01,West,271,4.0,6.0,55,0.00,,,0.00,Wunderground v.1.15,2013-04-27 23:02:00,
2013-04-27 16:04:00,76.4,58.5,30.00,WSW,251,5.0,6.0,54,0.00,,,0.00,Wunderground v.1.15,2013-04-27 23:04:00,
2013-04-27 16:06:00,76.3,58.9,30.00,WSW,251,4.0,6.0,55,0.00,,,0.00,Wunderground v.1.15,2013-04-27 23:06:00,
2013-04-27 16:08:00,76.3,58.9,30.00,WNW,290,3.0,6.0,55,0.00,,,0.00,Wunderground v.1.15,2013-04-27 23:08:00,
2013-04-27 16:10:00,76.3,58.9,30.00,West,271,4.0,4.0,55,0.00,,,0.00,Wunderground v.1.15,2013-04-27 23:10:00,
2013-04-27 16:12:00,76.2,58.3,30.00,WNW,298,3.0,4.0,54,0.00,,,0.00,Wunderground v.1.15,2013-04-27 23:12:00,
2013-04-27 16:14:00,76.0,58.2,30.00,West,281,4.0,6.0,54,0.00,,,0.00,Wunderground v.1.15,2013-04-27 23:14:00,
2013-04-27 16:20:00,75.2,57.9,30.00,WNW,289,5.0,8.0,55,0.00,,,0.00,Wunderground v.1.15,2013-04-27 23:20:00,
2013-04-27 16:22:00,75.1,58.3,30.00,West,259,5.0,8.0,56,0.00,,,0.00,Wunderground v.1.15,2013-04-27 23:22:00,
2013-04-27 16:24:00,74.9,58.1,30.00,West,277,5.0,8.0,56,0.00,,,0.00,Wunderground v.1.15,2013-04-27 23:24:00,
2013-04-27 16:26:00,74.9,58.1,30.00,North,350,4.0,8.0,56,0.00,,,0.00,Wunderground v.1.15,2013-04-27 23:26:00,
2013-04-27 16:28:00,74.8,58.1,30.00,West,280,4.0,8.0,56,0.00,,,0.00,Wunderground v.1.15,2013-04-27 23:28:00,
2013-04-27 16:30:00,74.7,58.0,30.00,West,265,4.0,4.0,56,0.00,,,0.00,Wunderground v.1.15,2013-04-27 23:30:00,
2013-04-27 16:34:00,74.8,58.1,30.00,WNW,299,3.0,4.0,56,0.00,,,0.00,Wunderground v.1.15,2013-04-27 23:34:00,
2013-04-27 16:38:00,74.6,57.4,30.00,West,279,3.0,6.0,55,0.00,,,0.00,Wunderground v.1.15,2013-04-27 23:38:00,
2013-04-27 16:40:00,74.5,57.8,30.00,West,263,4.0,4.0,56,0.00,,,0.00,Wunderground v.1.15,2013-04-27 23:40:00,
2013-04-27 16:44:00,74.4,57.2,30.00,WNW,285,4.0,5.0,55,0.00,,,0.00,Wunderground v.1.15,2013-04-27 23:44:00,
2013-04-27 16:46:00,74.3,57.6,30.00,WSW,238,4.0,5.0,56,0.00,,,0.00,Wunderground v.1.15,2013-04-27 23:46:00,
2013-04-27 16:48:00,74.4,57.7,30.00,NW,305,4.0,5.0,56,0.00,,,0.00,Wunderground v.1.15,2013-04-27 23:48:00,
2013-04-27 16:50:00,74.5,57.3,30.00,NNW,329,4.0,4.0,55,0.00,,,0.00,Wunderground v.1.15,2013-04-27 23:50:00,
2013-04-27 16:56:00,74.4,57.7,29.99,West,265,4.0,4.0,56,0.00,,,0.00,Wunderground v.1.15,2013-04-27 23:56:00,
2013-04-27 16:58:00,74.4,57.7,29.99,West,265,3.0,4.0,56,0.00,,,0.00,Wunderground v.1.15,2013-04-27 23:58:00,
2013-04-27 17:00:00,74.6,57.9,29.99,NW,309,3.0,3.0,56,0.00,,,0.00,Wunderground v.1.15,2013-04-28 00:00:00,
2013-04-27 17:04:00,74.7,57.5,29.99,West,275,3.0,4.0,55,0.00,,,0.00,Wunderground v.1.15,2013-04-28 00:04:00,
2013-04-27 17:06:00,74.7,57.5,29.99,West,278,3.0,4.0,55,0.00,,,0.00,Wunderground v.1.15,2013-04-28 00:06:00,
2013-04-27 17:10:00,74.8,58.1,29.99,West,276,3.0,5.0,56,0.00,,,0.00,Wunderground v.1.15,2013-04-28 00:10:00,
2013-04-27 17:12:00,74.8,58.1,30.00,WSW,258,3.0,6.0,56,0.00,,,0.00,Wunderground v.1.15,2013-04-28 00:12:00,
2013-04-27 17:14:00,74.7,58.0,29.99,NW,309,3.0,6.0,56,0.00,,,0.00,Wunderground v.1.15,2013-04-28 00:14:00,
2013-04-27 17:20:00,74.2,58.0,29.99,West,279,3.0,3.0,57,0.00,,,0.00,Wunderground v.1.15,2013-04-28 00:20:00,
2013-04-27 17:22:00,74.2,58.0,29.99,West,270,3.0,3.0,57,0.00,,,0.00,Wunderground v.1.15,2013-04-28 00:22:00,
2013-04-27 17:26:00,73.8,57.6,29.99,WNW,282,3.0,7.0,57,0.00,,,0.00,Wunderground v.1.15,2013-04-28 00:26:00,
2013-04-27 17:30:00,73.2,58.0,29.99,West,277,3.0,3.0,59,0.00,,,0.00,Wunderground v.1.15,2013-04-28 00:30:00,
2013-04-27 17:32:00,73.1,57.9,29.99,West,280,3.0,4.0,59,0.00,,,0.00,Wunderground v.1.15,2013-04-28 00:32:00,
2013-04-27 17:36:00,72.6,57.4,29.99,WNW,296,3.0,4.0,59,0.00,,,0.00,Wunderground v.1.15,2013-04-28 00:36:00,
2013-04-27 17:40:00,72.5,57.8,30.00,West,277,3.0,6.0,60,0.00,,,0.00,Wunderground v.1.15,2013-04-28 00:40:00,
2013-04-27 17:42:00,72.5,57.8,30.00,NNW,332,3.0,6.0,60,0.00,,,0.00,Wunderground v.1.15,2013-04-28 00:42:00,
2013-04-27 17:46:00,72.4,57.7,30.00,West,275,3.0,6.0,60,0.00,,,0.00,Wunderground v.1.15,2013-04-28 00:46:00,
2013-04-27 17:48:00,72.2,57.5,29.99,WSW,250,3.0,6.0,60,0.00,,,0.00,Wunderground v.1.15,2013-04-28 00:48:00,
2013-04-27 17:52:00,71.9,57.3,29.99,West,263,4.0,4.0,60,0.00,,,0.00,Wunderground v.1.15,2013-04-28 00:52:00,
2013-04-27 17:54:00,71.7,57.5,30.00,West,280,4.0,4.0,61,0.00,,,0.00,Wunderground v.1.15,2013-04-28 00:54:00,
2013-04-27 17:58:00,71.8,58.1,29.99,West,278,3.0,4.0,62,0.00,,,0.00,Wunderground v.1.15,2013-04-28 00:58:00,
2013-04-27 18:00:00,71.9,57.7,29.99,NW,323,2.0,2.0,61,0.00,,,0.00,Wunderground v.1.15,2013-04-28 01:00:00,
2013-04-27 18:04:00,71.9,57.3,29.99,WNW,296,1.0,2.0,60,0.00,,,0.00,Wunderground v.1.15,2013-04-28 01:04:00,
2013-04-27 18:06:00,71.7,57.5,29.99,West,277,2.0,3.0,61,0.00,,,0.00,Wunderground v.1.15,2013-04-28 01:06:00,
2013-04-27 18:10:00,71.1,57.0,29.99,NW,322,3.0,4.0,61,0.00,,,0.00,Wunderground v.1.15,2013-04-28 01:10:00,
2013-04-27 18:12:00,70.9,56.8,29.99,NNW,327,3.0,5.0,61,0.00,,,0.00,Wunderground v.1.15,2013-04-28 01:12:00,
2013-04-27 18:14:00,70.6,56.9,29.99,West,263,4.0,5.0,62,0.00,,,0.00,Wunderground v.1.15,2013-04-28 01:14:00,
2013-04-27 18:20:00,70.3,57.1,29.98,West,279,3.0,4.0,63,0.00,,,0.00,Wunderground v.1.15,2013-04-28 01:20:00,
2013-04-27 18:22:00,70.3,57.1,29.99,West,275,4.0,4.0,63,0.00,,,0.00,Wunderground v.1.15,2013-04-28 01:22:00,
2013-04-27 18:26:00,70.1,57.4,29.99,WNW,283,4.0,5.0,64,0.00,,,0.00,Wunderground v.1.15,2013-04-28 01:26:00,
2013-04-27 18:30:00,69.8,57.1,29.98,NW,320,4.0,4.0,64,0.00,,,0.00,Wunderground v.1.15,2013-04-28 01:30:00,
2013-04-27 18:32:00,69.7,57.4,29.99,WNW,290,4.0,4.0,65,0.00,,,0.00,Wunderground v.1.15,2013-04-28 01:32:00,
2013-04-27 18:34:00,69.6,57.3,29.99,WNW,290,3.0,4.0,65,0.00,,,0.00,Wunderground v.1.15,2013-04-28 01:34:00,
2013-04-27 18:40:00,69.4,56.7,29.99,West,280,3.0,3.0,64,0.00,,,0.00,Wunderground v.1.15,2013-04-28 01:40:00,
2013-04-27 18:42:00,69.3,56.6,29.98,West,280,3.0,3.0,64,0.00,,,0.00,Wunderground v.1.15,2013-04-28 01:42:00,
2013-04-27 18:44:00,69.2,56.9,29.98,West,279,3.0,4.0,65,0.00,,,0.00,Wunderground v.1.15,2013-04-28 01:44:00,
2013-04-27 18:50:00,69.0,56.7,29.98,West,278,3.0,4.0,65,0.00,,,0.00,Wunderground v.1.15,2013-04-28 01:50:00,
2013-04-27 18:52:00,69.0,56.7,29.98,West,278,3.0,5.0,65,0.00,,,0.00,Wunderground v.1.15,2013-04-28 01:52:00,
2013-04-27 18:54:00,68.9,56.2,29.98,WSW,258,3.0,5.0,64,0.00,,,0.00,Wunderground v.1.15,2013-04-28 01:54:00,
2013-04-27 18:56:00,68.7,56.5,29.98,West,260,3.0,5.0,65,0.00,,,0.00,Wunderground v.1.15,2013-04-28 01:56:00,
2013-04-27 18:58:00,68.6,56.8,29.99,West,260,3.0,5.0,66,0.00,,,0.00,Wunderground v.1.15,2013-04-28 01:58:00,
2013-04-27 19:00:00,68.6,56.8,29.98,West,259,3.0,4.0,66,0.00,,,0.00,Wunderground v.1.15,2013-04-28 02:00:00,
2013-04-27 19:04:00,68.3,56.5,29.98,West,259,2.0,4.0,66,0.00,,,0.00,Wunderground v.1.15,2013-04-28 02:04:00,
2013-04-27 19:06:00,68.2,56.8,29.98,West,269,2.0,4.0,67,0.00,,,0.00,Wunderground v.1.15,2013-04-28 02:06:00,
2013-04-27 19:08:00,68.0,56.6,29.99,West,281,2.0,4.0,67,0.00,,,0.00,Wunderground v.1.15,2013-04-28 02:08:00,
2013-04-27 19:12:00,67.7,56.8,29.98,West,281,2.0,2.0,68,0.00,,,0.00,Wunderground v.1.15,2013-04-28 02:12:00,
2013-04-27 19:14:00,67.5,56.6,29.99,West,281,2.0,5.0,68,0.00,,,0.00,Wunderground v.1.15,2013-04-28 02:14:00,
2013-04-27 19:18:00,67.2,56.3,29.98,West,281,2.0,5.0,68,0.00,,,0.00,Wunderground v.1.15,2013-04-28 02:18:00,
2013-04-27 19:20:00,67.0,56.1,29.98,West,281,2.0,2.0,68,0.00,,,0.00,Wunderground v.1.15,2013-04-28 02:20:00,
2013-04-27 23:14:00,59.8,55.6,30.02,SSW,200,0.0,0.0,86,0.00,,,0.00,Wunderground v.1.15,2013-04-28 06:14:00,
2013-04-27 23:20:00,59.7,55.5,30.02,South,189,1.0,2.0,86,0.00,,,0.00,Wunderground v.1.15,2013-04-28 06:20:00,
2013-04-27 23:22:00,59.7,55.8,30.02,South,189,1.0,2.0,87,0.00,,,0.00,Wunderground v.1.15,2013-04-28 06:22:00,
2013-04-27 23:24:00,59.7,55.8,30.02,South,189,1.0,1.0,87,0.00,,,0.00,Wunderground v.1.15,2013-04-28 06:24:00,
2013-04-27 23:26:00,59.6,55.4,30.02,South,189,1.0,2.0,86,0.00,,,0.00,Wunderground v.1.15,2013-04-28 06:26:00,
2013-04-27 23:28:00,59.6,55.4,30.02,South,189,1.0,2.0,86,0.00,,,0.00,Wunderground v.1.15,2013-04-28 06:28:00,
2013-04-27 23:30:00,59.6,55.7,30.02,South,189,1.0,2.0,87,0.00,,,0.00,Wunderground v.1.15,2013-04-28 06:30:00,
2013-04-27 23:34:00,59.5,55.6,30.02,South,189,1.0,1.0,87,0.00,,,0.00,Wunderground v.1.15,2013-04-28 06:34:00,
2013-04-27 23:36:00,59.5,55.6,30.02,South,189,1.0,1.0,87,0.00,,,0.00,Wunderground v.1.15,2013-04-28 06:36:00,
2013-04-27 23:40:00,59.4,55.5,30.02,South,189,0.0,2.0,87,0.00,,,0.00,Wunderground v.1.15,2013-04-28 06:40:00,
2013-04-27 23:42:00,59.4,55.5,30.02,South,189,0.0,2.0,87,0.00,,,0.00,Wunderground v.1.15,2013-04-28 06:42:00,
2013-04-27 23:44:00,59.4,55.5,30.02,South,189,0.0,0.0,87,0.00,,,0.00,Wunderground v.1.15,2013-04-28 06:44:00,
2013-04-27 23:46:00,59.3,55.4,30.02,South,189,0.0,1.0,87,0.00,,,0.00,Wunderground v.1.15,2013-04-28 06:46:00,
2013-04-27 23:48:00,59.3,55.4,30.02,South,189,0.0,1.0,87,0.00,,,0.00,Wunderground v.1.15,2013-04-28 06:48:00,
2013-04-27 23:50:00,59.3,55.4,30.02,South,189,0.0,1.0,87,0.00,,,0.00,Wunderground v.1.15,2013-04-28 06:50:00,
2013-04-27 23:54:00,59.2,55.3,30.02,South,189,0.0,0.0,87,0.00,,,0.00,Wunderground v.1.15,2013-04-28 06:54:00,
2013-04-27 23:56:00,59.1,55.2,30.02,South,189,0.0,0.0,87,0.00,,,0.00,Wunderground v.1.15,2013-04-28 06:56:00,
2013-04-27 23:58:00,59.1,55.2,30.02,South,189,0.0,0.0,87,0.00,,,0.00,Wunderground v.1.15,2013-04-28 06:58:00,